| time (UTC) | temp C | wind direction | speed KPH | gust KPH | rain 1hr cm | rain 24hr cm | rain mn cm | humidity % | barometer mb |
| 20260507044529 | 8 | 163 | 0.0 | 0.0 | 0.03 | 1.12 | 0.03 | 1 | 1009.3 |
| 20260507043125 | 8 | 163 | 0.0 | 0.0 | 0.03 | 1.12 | 0.03 | 1 | 1009.3 |
| 20260507024543 | 8 | 163 | 0.0 | 0.0 | 0.00 | 1.19 | 1.19 | 1 | 1009.1 |
| 20260507023036 | 8 | 163 | 0.0 | 0.0 | 0.03 | 1.19 | 1.19 | 1 | 1009.0 |
| 20260507021528 | 8 | 163 | 0.0 | 0.0 | 0.03 | 1.19 | 1.19 | 1 | 1008.9 |
| 20260507020024 | 8 | 163 | 0.0 | 0.0 | 0.03 | 1.19 | 1.19 | 1 | 1008.9 |
| 20260507014530 | 8 | 163 | 0.0 | 0.0 | 0.05 | 1.19 | 1.19 | 1 | 1008.8 |
| 20260507013015 | 8 | 163 | 0.0 | 0.0 | 0.03 | 1.17 | 1.17 | 1 | 1008.8 |
| 20260507011509 | 8 | 163 | 0.0 | 0.0 | 0.03 | 1.17 | 1.17 | 1 | 1008.8 |
| 20260507010006 | 8 | 163 | 0.0 | 0.0 | 0.03 | 1.17 | 1.17 | 1 | 1008.8 |
| 20260507004600 | 8 | 163 | 0.0 | 0.0 | 0.00 | 1.17 | 1.17 | 1 | 1008.8 |
| 20260507003055 | 8 | 163 | 0.0 | 0.0 | 0.00 | 1.17 | 1.17 | 1 | 1008.9 |
| 20260507001526 | 8 | 163 | 0.0 | 0.0 | 0.00 | 1.17 | 1.17 | 1 | 1008.8 |
| 20260507000026 | 8 | 163 | 0.0 | 0.0 | 0.00 | 1.17 | 1.17 | 1 | 1008.7 |
| 20260506234513 | 8 | 163 | 0.0 | 0.0 | 0.00 | 1.17 | 1.17 | 1 | 1008.7 |
| 20260506233006 | 8 | 163 | 0.0 | 0.0 | 0.00 | 1.17 | 1.17 | 1 | 1008.6 |
| 20260506231501 | 8 | 163 | 0.0 | 0.0 | 0.00 | 1.17 | 1.17 | 1 | 1008.5 |
| 20260506230057 | 8 | 163 | 0.0 | 0.0 | 0.00 | 1.17 | 1.17 | 1 | 1008.5 |
| 20260506224533 | 8 | 163 | 0.0 | 0.0 | 0.00 | 1.17 | 1.17 | 1 | 1008.4 |
| 20260506223028 | 8 | 163 | 0.0 | 0.0 | 0.00 | 1.17 | 1.17 | 1 | 1008.3 |
| 20260506211607 | 8 | 163 | 0.0 | 0.0 | 0.00 | 1.17 | 1.17 | 1 | 1008.1 |
| 20260506210107 | 8 | 163 | 0.0 | 0.0 | 0.00 | 1.17 | 1.17 | 1 | 1008.1 |
| 20260506203017 | 8 | 163 | 0.0 | 0.0 | 0.03 | 1.17 | 1.17 | 1 | 1007.9 |
| 20260506200101 | 10 | 163 | 0.0 | 0.0 | 0.03 | 1.19 | 1.17 | 1 | 1007.6 |
| 20260506194659 | 10 | 163 | 0.0 | 0.0 | 0.03 | 1.19 | 1.17 | 1 | 1007.4 |
| 20260506193020 | 10 | 163 | 0.0 | 0.0 | 0.03 | 1.17 | 1.14 | 1 | 1007.2 |
| 20260506191544 | 11 | 163 | 0.0 | 0.0 | 0.03 | 1.17 | 1.14 | 1 | 1006.9 |
| 20260506190108 | 11 | 163 | 0.0 | 0.0 | 0.03 | 1.17 | 1.14 | 1 | 1006.8 |
| 20260506184533 | 11 | 163 | 0.0 | 0.0 | 0.03 | 1.17 | 1.14 | 1 | 1006.7 |
| 20260506183037 | 12 | 163 | 0.0 | 0.0 | 0.00 | 1.17 | 1.12 | 1 | 1006.6 |
| 20260506181633 | 12 | 163 | 0.0 | 0.0 | 0.00 | 1.17 | 1.12 | 1 | 1006.5 |
| 20260506180106 | 12 | 163 | 0.0 | 0.0 | 0.00 | 1.17 | 1.12 | 1 | 1006.4 |
| 20260506174555 | 12 | 163 | 0.0 | 0.0 | 0.00 | 1.17 | 1.12 | 1 | 1006.2 |
| 20260506173043 | 12 | 236 | 0.0 | 0.0 | 0.00 | 1.17 | 1.12 | 1 | 1006.1 |
| 20260506171547 | 12 | 236 | 0.0 | 0.0 | 0.00 | 1.17 | 1.12 | 1 | 1006.0 |
| 20260506170118 | 12 | 236 | 0.0 | 0.0 | 0.00 | 1.17 | 1.12 | 1 | 1005.8 |
| 20260506164606 | 12 | 236 | 0.0 | 0.0 | 0.00 | 1.17 | 1.12 | 1 | 1005.5 |
| 20260506163119 | 12 | 236 | 0.0 | 0.0 | 0.00 | 1.17 | 1.12 | 1 | 1005.2 |
| 20260506163049 | 12 | 236 | 0.0 | 0.0 | 0.00 | 1.17 | 1.12 | 1 | 1005.2 |
| 20260506161551 | 13 | 236 | 0.0 | 0.0 | 0.00 | 1.17 | 1.12 | 1 | 1005.1 |
| 20260506160041 | 13 | 223 | 0.0 | 0.0 | 0.00 | 1.17 | 1.12 | 5 | 1005.2 |
| 20260506154629 | 13 | 295 | 0.0 | 0.0 | 0.00 | 1.17 | 1.12 | 31 | 1005.4 |
| 20260506153136 | 15 | 329 | 0.0 | 0.0 | 0.00 | 1.17 | 1.12 | 39 | 1004.8 |
| 20260506151531 | 15 | 330 | 0.0 | 0.0 | 0.00 | 1.17 | 1.12 | 45 | 1004.6 |
| 20260506151501 | 15 | 330 | 0.0 | 0.0 | 0.00 | 1.17 | 1.12 | 45 | 1004.7 |
| 20260506150056 | 15 | 330 | 0.0 | 0.0 | 0.00 | 1.17 | 1.12 | 49 | 1004.7 |
| 20260506144621 | 15 | 331 | 0.0 | 0.0 | 0.00 | 1.17 | 1.12 | 46 | 1004.7 |
| 20260506143125 | 15 | 224 | 0.0 | 0.0 | 0.00 | 1.17 | 1.12 | 50 | 1004.8 |
| 20260506140156 | 15 | 265 | 0.0 | 0.0 | 0.00 | 1.17 | 1.12 | 42 | 1004.9 |
| 20260506134532 | 15 | 233 | 0.0 | 0.0 | 0.00 | 1.17 | 1.12 | 35 | 1005.1 |
| 20260506133024 | 14 | 234 | 0.0 | 0.0 | 0.00 | 1.17 | 1.12 | 35 | 1005.3 |
| 20260506131518 | 14 | 235 | 0.0 | 0.0 | 0.00 | 1.17 | 1.12 | 28 | 1005.4 |
| 20260506130014 | 13 | 204 | 0.0 | 0.0 | 0.00 | 1.17 | 1.12 | 21 | 1005.2 |
| 20260506124507 | 13 | 193 | 0.0 | 0.0 | 0.00 | 1.17 | 1.12 | 1 | 1005.2 |
| 20260506123014 | 13 | 238 | 0.0 | 0.0 | 0.03 | 1.17 | 1.12 | 1 | 1005.2 |
| 20260506121627 | 13 | 211 | 0.0 | 0.0 | 0.05 | 1.19 | 1.12 | 1 | 1005.3 |
| 20260506120059 | 13 | 173 | 0.0 | 0.0 | 0.05 | 1.19 | 1.12 | 1 | 1005.4 |
| 20260506114604 | 13 | 222 | 0.0 | 0.0 | 0.05 | 1.19 | 1.12 | 1 | 1005.4 |
| 20260506113049 | 12 | 196 | 0.0 | 0.0 | 0.05 | 1.17 | 1.09 | 1 | 1005.5 |
| 20260506113019 | 12 | 188 | 0.0 | 0.0 | 0.05 | 1.17 | 1.09 | 1 | 1005.5 |
| 20260506111514 | 12 | 228 | 0.0 | 0.0 | 0.05 | 1.17 | 1.09 | 1 | 1005.5 |
| 20260506110010 | 12 | 221 | 0.0 | 0.0 | 0.05 | 1.17 | 1.09 | 1 | 1005.5 |
| 20260506104604 | 12 | 214 | 0.0 | 0.0 | 0.05 | 1.14 | 1.07 | 1 | 1005.6 |
| 20260506103054 | 11 | 265 | 0.0 | 0.0 | 0.05 | 1.12 | 1.04 | 1 | 1005.5 |
| 20260506101624 | 11 | 217 | 0.0 | 0.0 | 0.08 | 1.12 | 1.04 | 1 | 1005.5 |
| 20260506100018 | 11 | 197 | 0.0 | 0.0 | 0.08 | 1.09 | 1.02 | 1 | 1005.4 |
| 20260506094514 | 11 | 261 | 0.0 | 0.0 | 0.10 | 1.09 | 0.99 | 1 | 1005.2 |
| 20260506093009 | 11 | 261 | 0.0 | 0.0 | 0.10 | 1.07 | 0.99 | 1 | 1005.1 |
| 20260506091502 | 10 | 261 | 0.0 | 0.0 | 0.13 | 1.04 | 0.97 | 1 | 1005.0 |
| 20260506090058 | 10 | 253 | 0.0 | 0.0 | 0.15 | 1.02 | 0.94 | 1 | 1004.9 |
| 20260506090010 | 10 | 253 | 0.0 | 0.0 | 0.15 | 1.02 | 0.94 | 1 | 1004.9 |
| 20260506084622 | 10 | 252 | 0.0 | 0.0 | 0.15 | 0.99 | 0.91 | 1 | 1004.8 |
| 20260506083048 | 10 | 269 | 0.0 | 0.0 | 0.15 | 0.97 | 0.89 | 1 | 1004.6 |
| 20260506083012 | 10 | 269 | 0.0 | 0.0 | 0.15 | 0.97 | 0.89 | 1 | 1004.6 |
| 20260506081619 | 10 | 300 | 0.0 | 0.0 | 0.15 | 0.91 | 0.84 | 1 | 1004.5 |
| 20260506073033 | 10 | 242 | 0.0 | 0.0 | 0.18 | 0.79 | 0.71 | 1 | 1004.2 |
| 20260506071601 | 10 | 242 | 0.0 | 0.0 | 0.20 | 0.76 | 0.69 | 1 | 1004.0 |
| 20260506061558 | 10 | 312 | 0.0 | 0.0 | 0.20 | 0.56 | 0.48 | 1 | 1003.5 |
| 20260506060146 | 10 | 47 | 0.0 | 0.0 | 0.20 | 0.51 | 0.43 | 1 | 1003.4 |